Погода в Листвянке

Россия / Кемеровская область (Кузбасс)     56°04′03″N   88°23′44″E
темп.,
°C
ветер,
м/с
пор.,
м/с
влажн.,
%
обл.,
%
осадки,
мм/ч
давл.,
гПа
погр.,
м
9 марта, вт
вт901:00−1зюз91691100 0.1 10071084
04:00−6зсз91588100 1.4 1012720
07:00−10зюз7148898 1.4 1019609
10:00−10зюз81486100 0.0 1022866
13:00−8зюз91481100 0.0 10241070
16:00−7зюз8137862 0.0 1024967
19:00−10юз4128541 0.0 1024325
22:00−10ююз4128693 0.0 1024340
10 марта, ср
ср1001:00−11юз4118380 0.0 1022228
04:00−12юз4128184 0.0 1021247
07:00−12юз4117975 0.0 1020196
10:00−7юз5148535 0.0 1019637
13:00−4зюз6117960 0.0 1018824
16:00−2зюз488394 0.0 1017942
19:00−7вюв118997 0.0 101621
22:00−6юв3488100 0.0 101448
11 марта, чт
чт1101:00−5юв4785100 0.0 1009118
04:00−2ююв51175100 0.0 1004204
07:00+1юз81788100 0.1 1003924
10:00+2юз10208679 0.0 10041239
13:00−1зюз11187479 0.0 10081025
16:00−3зюз101679100 0.0 1012927
19:00−5зюз61584100 0.0 1014744
22:00−6зюз8178395 0.0 1016847
12 марта, пт
пт1201:00−9зюз6178447 0.0 1018582
04:00−11ююв34854 0.0 101651
07:00−9ююв467836 0.0 1012105
10:00−4юз91592100 0.1 10101287
13:00−6зюз10166683 0.8 10131892
16:00−7зюз8147333 0.0 10131669
19:00−11з6138767 0.1 1014707
22:00−14зюз7158595 0.0 1015720
13 марта, сб
сб1301:00−15зюз8148697 0.1 1016988
04:00−19зюз81487100 0.1 1019926
07:00−21зюз71589100 0.1 1024777
10:00−20зюз91587100 0.0 1026757
13:00−17зюз81384100 0.0 1028855
16:00−15зюз81383100 0.0 1028826
19:00−17зюз5148591 0.0 1028549
22:00−17юз6168532 0.0 1029590